LiveATC.Net - Listen to live air traffic control over the Internet!


ICAO: KGDM  IATA: GDM   Airport: Gardner Municipal Airport
City: Gardner   State/Province: Massachusetts
Country: United States   Continent: North America
KORE METAR Weather: KORE 082152Z AUTO 33014KT 10SM CLR 06/M02 A3018 RMK AO2 SLP222 T00561017
KGDM ADS-B Flight Tracking (ADSBExchange)
KGDM Flight Activity (FlightAware)
KGDM Airport Info   (iFlightPlanner)
KGDM VFR Sectional Chart   (iFlightPlanner) 
KGDM IFR Low Altitude Chart   (iFlightPlanner) 
KGDM IFR High Altitude Chart   (iFlightPlanner) 

KGDM/KORE CTAF
Feed Status: UP   Listeners: 0
Listen in your browser - HTML5 player (in browser, HTML5)
Click here to listen with your own player (launches your MP3 player)
Archive Access: KGDM/KORE CTAF
FacilityFrequency
Gardner CTAF122.800

NOTICE

Unauthorized use prohibited. See LiveATC.net Terms of Service


Airport/ARTCC Code
Frequency Search
(e.g., 124.400, 128.75)
Site-wide search
 


Browse Feeds
Top 50 Feeds
HF Oceanic Feeds
Coverage Map
Bad Weather Areas

LiveATC FAQ
Offer LiveATC feed
Contact LiveATC.net
Press Inquiries

LiveATC on iPhone
LiveATC on Android

LiveATC Mobile
(Mobile browser)

ATC Audio Archives
Interesting Recordings

LiveATC Forums


Home Page
About LiveATC.net


Terms of Use
Privacy Policy

AIRMETs/SIGMETs

FAA Airport Status
NAS Status
Arrival Demand


Server Software By:
Icecast.org
Liquidsoap